Lyndonville, VT

1:32 AM EDT on June 24, 2017 (GMT -0400)
Lyndonville

Weather History for KCDA - October, 2012

Change the Weather History Date:

Tuesday, October 30, 2012

  Actual Average (K1V4) Record (K1V4)
Temperature  
Mean Temperature 61 °F -  
Max Temperature 66 °F 47 °F 71 °F (1950)
Min Temperature 56 °F 30 °F 14 °F (1966)
Degree Days  
Heating Degree Days 4    
Growing Degree Days 11 (Base 50)    
Moisture  
Dew Point 52 °F    
Average Humidity 73    
Maximum Humidity 90    
Minimum Humidity 53    
Precipitation  
Precipitation 0.00 in - - ()
Sea Level Pressure  
Sea Level Pressure 29.56 in    
Wind  
Wind Speed 15 mph (ESE)    
Max Wind Speed 23 mph    
Max Gust Speed 34 mph    
Visibility 9 miles    
Events Rain    
Averages and records for this station are not official NWS values.
T = Trace of Precipitation, MM = Missing Value Source: NWS Daily Summary

Daily Weather History Graph

Daily Weather History Graph

Search for Another Location

Airport or City:

Trip Planner

Search our weather history database for the weather conditions in past years. The results will help you decide how hot, cold, wet, or windy it might be!

Date:

Astronomy

Oct. 30, 2012 Rise Set
Actual Time 7:23 AM EDT 5:39 PM EDT
Civil Twilight 6:53 AM EDT 6:09 PM EDT
Nautical Twilight 6:18 AM EDT 6:43 PM EDT
Astronomical Twilight 5:45 AM EDT 7:17 PM EDT
Moon 6:03 PM EDT (10/30) 8:10 AM EDT (10/30)
Length of Visible Light 11h 16m
Length of Day
10h 15m
Full, 99% of the Moon is Illuminated
Oct 30
Full
Nov 6
Last Quarter
Nov 13
New
Nov 20
First Quarter
Nov 28
Full

Hourly Weather History & Observations

Time (EDT) Temp. Dew Point Humidity Pressure Visibility Wind Dir Wind Speed Gust Speed Precip Events Conditions
12:15 AM 57.7 °F 51.6 °F 80% 29.43 in 4.0 mi East 23.0 mph 34.5 mph N/A Rain Rain
12:35 AM 57.4 °F 51.8 °F 82% 29.44 in 7.0 mi East 17.3 mph 27.6 mph N/A Rain Light Rain
12:55 AM 57.4 °F 52.0 °F 82% 29.44 in 7.0 mi East 19.6 mph 31.1 mph N/A Rain Light Rain
7:15 AM 59.7 °F 53.1 °F 79% 29.50 in 10.0 mi ESE 16.1 mph - N/A   Unknown
7:35 AM 58.5 °F 53.1 °F 82% 29.51 in 10.0 mi East 10.4 mph - N/A   Scattered Clouds
7:55 AM 59.0 °F 53.2 °F 81% 29.52 in 7.0 mi ESE 16.1 mph 20.7 mph N/A Rain Light Rain
8:15 AM 59.2 °F 53.1 °F 80% 29.53 in 10.0 mi East 10.4 mph - N/A   Scattered Clouds
8:35 AM 60.8 °F 52.0 °F 73% 29.53 in 10.0 mi East 16.1 mph 25.3 mph N/A Rain Light Rain
8:55 AM 61.7 °F 51.6 °F 69% 29.54 in 10.0 mi East 15.0 mph 23.0 mph N/A   Overcast
9:15 AM 61.7 °F 51.4 °F 69% 29.55 in 10.0 mi ESE 15.0 mph 23.0 mph N/A   Overcast
9:35 AM 62.6 °F 51.1 °F 66% 29.56 in 10.0 mi ESE 16.1 mph 26.5 mph N/A   Mostly Cloudy
9:55 AM 62.6 °F 51.1 °F 66% 29.56 in 10.0 mi ESE 19.6 mph 27.6 mph N/A   Overcast
10:15 AM 61.7 °F 51.4 °F 69% 29.57 in 10.0 mi ESE 20.7 mph 27.6 mph N/A Rain Light Rain
10:35 AM 59.9 °F 52.3 °F 76% 29.58 in 7.0 mi ESE 18.4 mph 25.3 mph N/A Rain Light Rain
11:15 AM 62.2 °F 52.9 °F 71% 29.58 in 10.0 mi ESE 17.3 mph 21.9 mph N/A   Mostly Cloudy
11:35 AM 63.9 °F 52.9 °F 67% 29.58 in 10.0 mi East 16.1 mph 23.0 mph N/A   Mostly Cloudy
11:55 AM 63.5 °F 51.8 °F 66% 29.58 in 10.0 mi East 15.0 mph 24.2 mph N/A   Unknown
12:15 PM 63.5 °F 51.8 °F 66% 29.59 in 10.0 mi East 13.8 mph - N/A   Overcast
12:55 PM 64.0 °F 52.3 °F 66% 29.59 in 10.0 mi ESE 16.1 mph - N/A   Mostly Cloudy
1:15 PM 62.8 °F 52.3 °F 69% 29.59 in 10.0 mi East 15.0 mph 26.5 mph N/A   Mostly Cloudy
1:35 PM 63.3 °F 52.9 °F 69% 29.60 in 10.0 mi ESE 11.5 mph 19.6 mph N/A   Overcast
1:55 PM 63.5 °F 53.1 °F 69% 29.60 in 10.0 mi ESE 10.4 mph - N/A   Mostly Cloudy
2:15 PM 64.6 °F 52.0 °F 64% 29.58 in 10.0 mi ESE 13.8 mph 21.9 mph N/A   Mostly Cloudy
2:35 PM 66.7 °F 49.8 °F 54% 29.57 in 10.0 mi ESE 13.8 mph 23.0 mph N/A   Scattered Clouds
2:55 PM 66.7 °F 49.1 °F 53% 29.58 in 10.0 mi ESE 13.8 mph 20.7 mph N/A   Clear
3:15 PM 65.1 °F 48.6 °F 55% 29.59 in 10.0 mi East 17.3 mph 24.2 mph N/A   Scattered Clouds
3:35 PM 64.4 °F 49.3 °F 58% 29.59 in 10.0 mi ESE 17.3 mph 21.9 mph N/A   Mostly Cloudy
3:55 PM 64.0 °F 48.9 °F 58% 29.60 in 10.0 mi ESE 13.8 mph 21.9 mph N/A   Overcast
4:15 PM 63.5 °F 48.9 °F 59% 29.59 in 10.0 mi ESE 15.0 mph 21.9 mph N/A Rain Light Rain
4:35 PM 63.1 °F 50.7 °F 64% 29.60 in 10.0 mi ESE 9.2 mph 19.6 mph N/A Rain Light Rain
4:55 PM 62.6 °F 50.9 °F 66% 29.60 in 10.0 mi ESE 13.8 mph 20.7 mph N/A   Mostly Cloudy
5:15 PM 61.9 °F 50.9 °F 67% 29.59 in 10.0 mi East 13.8 mph 18.4 mph N/A   Mostly Cloudy
5:35 PM 61.9 °F 50.7 °F 67% 29.59 in 10.0 mi ESE 11.5 mph 17.3 mph N/A Rain Light Rain
5:55 PM 62.2 °F 50.5 °F 65% 29.60 in 10.0 mi ESE 8.1 mph - N/A   Overcast
6:15 PM 62.1 °F 50.2 °F 65% 29.59 in 10.0 mi ESE 12.7 mph - N/A   Mostly Cloudy
6:35 PM 61.7 °F 50.4 °F 66% 29.60 in 10.0 mi NE 4.6 mph - N/A   Mostly Cloudy
7:15 PM 59.9 °F 52.7 °F 77% 29.60 in 10.0 mi ENE 5.8 mph - N/A Rain Rain
7:35 PM 58.6 °F 53.2 °F 82% 29.60 in 7.0 mi NE 3.5 mph - N/A Rain Rain
8:15 PM 57.2 °F 53.8 °F 88% 29.58 in 4.0 mi North 4.6 mph - N/A Rain Rain
8:35 PM 57.6 °F 54.1 °F 88% 29.57 in 10.0 mi NNE 5.8 mph - N/A Rain Rain
8:55 PM 57.2 °F 54.0 °F 89% 29.58 in 0.8 mi SW 4.6 mph - N/A Rain Heavy Rain
9:15 PM 57.2 °F 54.1 °F 89% 29.57 in 4.0 mi Calm Calm - N/A Rain Light Rain
9:35 PM 56.8 °F 54.0 °F 90% 29.56 in 7.0 mi North 4.6 mph - N/A Rain Light Rain
9:55 PM 57.6 °F 54.7 °F 90% 29.55 in 10.0 mi NE 6.9 mph - N/A   Drizzle
10:15 PM 58.8 °F 54.3 °F 85% 29.55 in 10.0 mi East 10.4 mph - N/A   Overcast
10:35 PM 59.4 °F 53.8 °F 82% 29.56 in 10.0 mi SE 6.9 mph - N/A   Overcast
10:55 PM 58.6 °F 53.8 °F 84% 29.54 in 7.0 mi South 4.6 mph - N/A Rain Rain
11:15 PM 57.7 °F 54.5 °F 89% 29.57 in 4.0 mi SSE 9.2 mph - N/A Rain Light Rain
11:35 PM 56.8 °F 52.5 °F 85% 29.57 in 10.0 mi South 10.4 mph 16.1 mph N/A   Mostly Cloudy
11:55 PM 56.3 °F 50.9 °F 82% 29.56 in 10.0 mi South 6.9 mph - N/A   Scattered Clouds